Regional Weather Roundup
Issued by NWS

Home | Current Version | Previous Version | Text Only | Print | Product List | Glossary On
Versions: 1 2 3 4 5 6 7 8 9 10 11 12 13 14 15 16 17 18 19 20 21 22 23 24 25 26 27 28 29 30 31 32 33 34 35 36 37 38 39 40 41 42 43 44 45 46 47 48 49 50
000
ASUS43 KMKX 230810
RWRWI

WISCONSIN REGIONAL WEATHER ROUNDUP
NATIONAL WEATHER SERVICE MILWAUKEE/SULLIVAN WI
200 AM CST FRI FEB 23 2018

NOTE: "FAIR" INDICATES FEW OR NO CLOUDS BELOW 12,000 FEET WITH NO
SIGNIFICANT WEATHER AND/OR OBSTRUCTIONS TO VISIBILITY.

WIZ001-002-006>008-014>016-023>028-230900-
NORTHWEST WISCONSIN

CITY           SKY/WX    TMP DP  RH WIND       PRES   REMARKS
SUPERIOR ARPT  LGT SNOW  24  23  95 NE7       30.21F VSB 1   WCI  16
ASHLAND        LGT SNOW  23  21  92 NE7       30.19F VSB 1   WCI  15
HAYWARD        LGT SNOW  25  23  92 NE3       30.14F VSB 1
SIREN          SNOW      26  25  96 CALM      30.13F VSB 1/2
CUMBERLAND     SNOW      25  23  93 E7        30.12F VSB 1/2 WCI  17
RICE LAKE      SNOW      26  25  98 E6        30.15F VSB 1/2 WCI  19
CHETEK         LGT SNOW  25  24  96 E5        30.14F WCI  20
LADYSMITH      LGT SNOW  26  25  96 E5        30.16F WCI  21
EAU CLAIRE     LGT SNOW  28  27  96 E6        30.13F VSB 1   WCI  22
MENOMONIE      LGT SNOW  27  26  96 E7        30.14F WCI  20
NEW RICHMOND   LGT SNOW  26  23  90 E6        30.13F WCI  19
OSCEOLA        LGT SNOW  26  26 100 E6        30.15F WCI  20
$$

WIZ003>005-009-010-017-018-230900-
NORTH CENTRAL WISCONSIN

CITY           SKY/WX    TMP DP  RH WIND       PRES   REMARKS
MANITOWISH WTR SNOW      24  24 100 CALM      30.15F VSB 1/2
ARBOR VITAE    LGT SNOW  26  24  92 SE3       30.13F
WOODRUFF       LGT SNOW  26  24  92 SE3       30.13F
RHINELANDER    CLOUDY    26  25  96 SE13      30.11F FOG     WCI  15
EAGLE RIVER    MIX PCPN  25  23  92 SE9G16    30.12F WCI  15
LAND O LAKES   LGT SNOW  25  23  91 SE8       30.15F VSB 3/4 WCI  16
PHILLIPS       LGT SNOW  24  24 100 CALM      30.14F VSB 1
TOMAHAWK       MIX PCPN  26  24  94 CALM      30.12F
MEDFORD        MIX PCPN  28  26  95 S9        30.12S WCI  19
MERRILL        MIX PCPN  29  28  97 SE9G17    30.13F WCI  21
$$

WIZ029-030-035-036-043>047-230900-
CENTRAL WISCONSIN

CITY           SKY/WX    TMP DP  RH WIND       PRES   REMARKS
WAUSAU         CLOUDY    29  27  92 SE14G21   30.12F WCI  18
MOSINEE        MIX PCPN  28  28 100 SE10G16   30.14F WCI  19
MARSHFIELD     CLOUDY    29  28  96 SE13      30.08F WCI  19
STEVENS POINT  CLOUDY    28  28 100 E9        30.15F WCI  19
WAUPACA        DRIZZLE   33  31  92 E8        30.17F WCI  26
WAUTOMA        CLOUDY    31  29  92 E6        30.16F WCI  25
WISC RAPIDS    CLOUDY    30  26  85 SE10      30.14F WCI  21
CAMP DOUGLAS   FRZ DRZL  32  30  93 SE6       30.10F FOG     WCI  26
$$

WIZ011>013-019>022-031-037>040-048>050-230900-
NORTHEAST WISCONSIN

CITY           SKY/WX    TMP DP  RH WIND       PRES   REMARKS
ANTIGO         CLOUDY    27  26  99 SE15      30.14F FOG     WCI  15
SHAWANO        CLOUDY    32  30  92 E7        30.20F WCI  26
OCONTO         CLOUDY    32  29  90 SE7       30.24F WCI  25
STURGEON BAY   MIX PCPN  32  28  85 SE14G23   30.23F WCI  22
GREEN BAY      CLOUDY    32  28  85 SE10      30.20F WCI  24
MANITOWOC      CLOUDY    33  31  92 SE16      30.24F WCI  23
APPLETON       CLOUDY    32  28  86 SE13      30.16F WCI  22
CLINTONVILLE   MIX PCPN  31  28  89 E8        30.18F WCI  23
OSHKOSH        CLOUDY    32  30  92 SE15      30.16F FOG     WCI  22
$$

WIZ032>034-041-042-053>061-230900-
SOUTHWEST WISCONSIN

CITY           SKY/WX    TMP DP  RH WIND       PRES   REMARKS
LA CROSSE      LGT RAIN  34  32  92 N3        30.13F FOG
SPARTA         LGT SNOW  32  31  98 CALM      30.14S
VIROQUA        CLOUDY    32  32 100 SE9       30.09F WCI  24
BOSCOBEL       LGT RAIN  34  32  92 CALM      30.13F FOG
PRAIRIE DU CHI MIX PCPN  33  32  96 E6        30.11F WCI  28
PLATTEVILLE    CLOUDY    34  34 100 SE10      30.10F WCI  26
$$

WIZ056-057-062-063-064-067-068-230900-
SOUTH CENTRAL WISCONSIN

CITY           SKY/WX    TMP DP  RH WIND       PRES   REMARKS
REEDSBURG      DRIZZLE   32  32 100 E5        30.11F WCI  27
BARABOO/DELLS  MIX PCPN  32  32  99 SE7       30.12F WCI  26
LONE ROCK      LGT RAIN  33  33 100 SE6       30.13F FOG     WCI  28
MINERAL POINT  LGT RAIN  36 N/A N/A SE10G18   30.10F WCI  28
MADISON        LGT RAIN  34  33  96 SE10      30.13F FOG     WCI  26
MIDDLETON      CLOUDY    34  34 100 SE9       30.13F WCI  27
WATERTOWN      CLOUDY    34  34 100 SE8G16    30.16F FOG     WCI  27
MONROE         DRZL/FOG  34  34 100 E8        30.12F VSB 1/4 WCI  27
JANESVILLE     CLOUDY    36  36 100 SE7       30.14F FOG     WCI  30
$$

WIZ051-052-058>065-066-070>072-230900-
SOUTHEAST WISCONSIN

CITY           SKY/WX    TMP DP  RH WIND       PRES   REMARKS
MILWAUKEE      DRZL/FOG  37  36  96 SE14      30.19F VSB 3/4 WCI  28
WAUKESHA       CLOUDY    34  32  93 SE13      30.18F FOG     WCI  25
MILWAUKEE/TIMM CLOUDY    34  32  93 SE8       30.21F FOG     WCI  27
RACINE         CLOUDY    36  36 100 SE14G24   30.20F FOG     WCI  27
BURLINGTON     CLOUDY    35  34  95 SE8       30.17F FOG     WCI  29
KENOSHA        CLOUDY    36  34  92 SE15      30.19F FOG     WCI  27
FOND DU LAC    MIX PCPN  33  30  88 SE16      30.16F FOG     WCI  23
SHEBOYGAN      CLOUDY    33  32  96 SE12G21   30.22F FOG     WCI  24
WEST BEND      DRIZZLE   34  34 100 SE10      30.20F WCI  26
JUNEAU         CLOUDY    32  32  99 E12       30.17F FOG     WCI  23
$$

LSZ147-162-230900-
LAKE SUPERIOR

STATION/POSITION TIME  TEMP    WIND        PRES    WAVE
                       AIR SEA DIR/SP/G            HT/PER
                 (UTC) (F)     (DEG/KT/KT) (MB)    (FT/S)
DEVILS ISLAND    0800   26      50/ 13/ 13 1024.2F
SAXON HARBOR     0740   26      70/  4/  6 1023.0F
$$

LMZ867-665-643>646-230900-
LAKE MICHIGAN

STATION/POSITION TIME  TEMP    WIND        PRES    WAVE
                       AIR SEA DIR/SP/G            HT/PER
                 (UTC) (F)     (DEG/KT/KT) (MB)    (FT/S)
NORTHPORT PIER   0802   33                 1024.4
KEWAUNEE LAKESHO 0742   34     150/ 20/ 23 1023.8F
SHEBOYGAN LAKESH 0800   35     150/ 18/ 21 1023.7F
PORT WASHINGTON  0800   36     150/ 12/ 17 1023.7
MILWAUKEE LAKESH 0750   35     140/  9/ 11   N/A
KENOSHA   LAKESH 0800   35     140/ 12/ 15 1022.4
$$

TC  - TEMPERATURE IN CELSIUS
VSB - VISIBILITY IN STATUTE MILES
WCI - WIND CHILL INDEX
HX  - HEAT INDEX




USA.gov is the U.S. government's official web portal to all federal, state and local government web resources and services.